Location: Rancho Santa Fe Post Office
(33.0184°N, 117.2026°W)
Time: 05:08:25
(UTC+00:00)

Cosmos 2151 - Pass Details

Date: 10 September 2024
Orbit: 567 x 586 km, 82.5° (Epoch: 09 October)

Event Time Altitude Azimuth Distance (km) Brightness Sun altitude
Rises 12:48:19 0° 349° (N) 2,770 6.4 -9.4°
Reaches altitude 10° 12:50:31 10° 346° (NNW) 1,871 5.5 -8.9°
Maximum altitude 12:54:35 60° 266° (W) 653 2.9 -8.1°
Drops below altitude 10° 12:58:38 10° 186° (S) 1,866 5.4 -7.3°
Sets 13:00:49 0° 183° (S) 2,763 6.3 -6.8°
